| time (UTC) | temp C | wind direction | speed KPH | gust KPH | rain 1hr cm | rain 24hr cm | rain mn cm | humidity % | barometer mb |
| 20260508172400 | 17 | 121 | 3.2 | 6.4 | 0.00 | 0.00 | 0.00 | 63 | 1005.9 |
| 20260508171849 | 17 | 223 | 3.2 | 9.7 | 0.00 | 0.00 | 0.00 | 65 | 1006.1 |
| 20260508171347 | 17 | 250 | 3.2 | 9.7 | 0.00 | 0.00 | 0.00 | 64 | 1006.1 |
| 20260508170843 | 17 | 217 | 3.2 | 9.7 | 0.00 | 0.00 | 0.00 | 66 | 1006.1 |
| 20260508170336 | 16 | 189 | 4.8 | 9.7 | 0.00 | 0.00 | 0.00 | 66 | 1006.5 |
| 20260508170053 | 16 | 138 | 4.8 | 9.7 | 0.00 | 0.00 | 0.00 | 68 | 1006.5 |
| 20260508165324 | 16 | 109 | 4.8 | 9.7 | 0.00 | 0.00 | 0.00 | 69 | 1006.5 |
| 20260508165040 | 16 | 238 | 3.2 | 9.7 | 0.00 | 0.00 | 0.00 | 68 | 1006.6 |
| 20260508164313 | 16 | 170 | 3.2 | 9.7 | 0.00 | 0.00 | 0.00 | 70 | 1006.6 |
| 20260508163802 | 15 | 207 | 4.8 | 11.3 | 0.00 | 0.00 | 0.00 | 70 | 1006.6 |
| 20260508163513 | 15 | 217 | 4.8 | 11.3 | 0.00 | 0.00 | 0.00 | 70 | 1006.9 |
| 20260508162737 | 15 | 202 | 3.2 | 9.7 | 0.00 | 0.00 | 0.00 | 71 | 1006.9 |
| 20260508162232 | 15 | 206 | 3.2 | 9.7 | 0.00 | 0.00 | 0.00 | 70 | 1006.9 |
| 20260508161731 | 15 | 171 | 3.2 | 8.0 | 0.00 | 0.00 | 0.00 | 71 | 1007.0 |
| 20260508161232 | 15 | 138 | 3.2 | 8.0 | 0.00 | 0.00 | 0.00 | 71 | 1007.0 |
| 20260508160735 | 15 | 201 | 3.2 | 8.0 | 0.00 | 0.00 | 0.00 | 71 | 1007.0 |
| 20260508160234 | 15 | 157 | 3.2 | 8.0 | 0.00 | 0.00 | 0.00 | 70 | 1007.0 |
| 20260508155731 | 15 | 207 | 3.2 | 6.4 | 0.00 | 0.00 | 0.00 | 72 | 1007.0 |
| 20260508155457 | 15 | 139 | 3.2 | 8.0 | 0.00 | 0.00 | 0.00 | 72 | 1007.0 |
| 20260508154731 | 15 | 221 | 3.2 | 11.3 | 0.00 | 0.00 | 0.00 | 71 | 1007.1 |
| 20260508154230 | 15 | 178 | 3.2 | 11.3 | 0.00 | 0.00 | 0.00 | 71 | 1007.1 |
| 20260508153728 | 15 | 231 | 3.2 | 9.7 | 0.00 | 0.00 | 0.00 | 70 | 1007.1 |
| 20260508153224 | 15 | 209 | 3.2 | 6.4 | 0.00 | 0.00 | 0.00 | 72 | 1007.2 |
| 20260508152717 | 15 | 209 | 3.2 | 11.3 | 0.00 | 0.00 | 0.00 | 73 | 1007.2 |
| 20260508152211 | 15 | 190 | 3.2 | 11.3 | 0.00 | 0.00 | 0.00 | 72 | 1007.2 |
| 20260508151659 | 15 | 140 | 3.2 | 9.7 | 0.00 | 0.00 | 0.00 | 72 | 1007.2 |
| 20260508151159 | 15 | 211 | 4.8 | 11.3 | 0.00 | 0.00 | 0.00 | 72 | 1007.2 |
| 20260508150647 | 14 | 202 | 4.8 | 12.9 | 0.00 | 0.00 | 0.00 | 73 | 1007.2 |
| 20260508150147 | 15 | 238 | 4.8 | 12.9 | 0.00 | 0.00 | 0.00 | 71 | 1007.4 |
| 20260508145640 | 15 | 230 | 4.8 | 12.9 | 0.00 | 0.00 | 0.00 | 73 | 1007.4 |
| 20260508145133 | 14 | 190 | 4.8 | 12.9 | 0.00 | 0.00 | 0.00 | 73 | 1007.4 |
| 20260508144629 | 14 | 217 | 4.8 | 11.3 | 0.00 | 0.00 | 0.00 | 73 | 1007.3 |
| 20260508144117 | 14 | 222 | 3.2 | 11.3 | 0.00 | 0.00 | 0.00 | 75 | 1007.3 |
| 20260508143615 | 13 | 155 | 3.2 | 8.0 | 0.00 | 0.00 | 0.00 | 76 | 1007.3 |
| 20260508143111 | 13 | 223 | 4.8 | 8.0 | 0.00 | 0.00 | 0.00 | 77 | 1007.4 |
| 20260508142827 | 13 | 244 | 3.2 | 8.0 | 0.00 | 0.00 | 0.00 | 78 | 1007.4 |
| 20260508142319 | 13 | 198 | 3.2 | 9.7 | 0.00 | 0.00 | 0.00 | 79 | 1007.4 |
| 20260508141547 | 13 | 196 | 3.2 | 9.7 | 0.00 | 0.00 | 0.00 | 80 | 1007.6 |
| 20260508141312 | 12 | 144 | 4.8 | 11.3 | 0.00 | 0.00 | 0.00 | 82 | 1007.6 |
| 20260508140805 | 12 | 206 | 4.8 | 11.3 | 0.00 | 0.00 | 0.00 | 81 | 1007.6 |
| 20260508140033 | 12 | 232 | 3.2 | 8.0 | 0.00 | 0.00 | 0.00 | 83 | 1007.6 |
| 20260508135527 | 12 | 167 | 3.2 | 11.3 | 0.00 | 0.00 | 0.00 | 84 | 1007.6 |
| 20260508135022 | 12 | 226 | 3.2 | 11.3 | 0.00 | 0.00 | 0.00 | 85 | 1007.6 |
| 20260508134516 | 11 | 225 | 4.8 | 11.3 | 0.00 | 0.00 | 0.00 | 85 | 1007.6 |
| 20260508134006 | 11 | 188 | 4.8 | 12.9 | 0.00 | 0.00 | 0.00 | 85 | 1007.6 |
| 20260508133504 | 11 | 200 | 4.8 | 12.9 | 0.00 | 0.00 | 0.00 | 85 | 1007.6 |
| 20260508132958 | 11 | 232 | 3.2 | 8.0 | 0.00 | 0.00 | 0.00 | 85 | 1007.5 |
| 20260508132450 | 11 | 227 | 3.2 | 8.0 | 0.00 | 0.00 | 0.00 | 86 | 1007.5 |
| 20260508131945 | 11 | 148 | 3.2 | 4.8 | 0.00 | 0.00 | 0.00 | 86 | 1007.6 |
| 20260508131435 | 11 | 123 | 3.2 | 6.4 | 0.00 | 0.00 | 0.00 | 87 | 1007.6 |
| 20260508130934 | 10 | 130 | 3.2 | 6.4 | 0.00 | 0.00 | 0.00 | 87 | 1007.6 |
| 20260508130656 | 10 | 162 | 1.6 | 6.4 | 0.00 | 0.00 | 0.00 | 87 | 1007.6 |
| 20260508125933 | 10 | 162 | 1.6 | 6.4 | 0.00 | 0.00 | 0.00 | 88 | 1007.6 |
| 20260508125432 | 10 | 107 | 1.6 | 4.8 | 0.00 | 0.00 | 0.00 | 88 | 1007.6 |
| 20260508124931 | 10 | 154 | 1.6 | 4.8 | 0.00 | 0.00 | 0.00 | 87 | 1007.6 |
| 20260508124429 | 10 | 128 | 1.6 | 4.8 | 0.00 | 0.00 | 0.00 | 87 | 1007.6 |
| 20260508123929 | 9 | 120 | 1.6 | 4.8 | 0.00 | 0.00 | 0.00 | 88 | 1007.6 |
| 20260508123429 | 9 | 173 | 0.0 | 4.8 | 0.00 | 0.00 | 0.00 | 88 | 1007.5 |
| 20260508122929 | 9 | 157 | 1.6 | 6.4 | 0.00 | 0.00 | 0.00 | 87 | 1007.5 |
| 20260508122430 | 9 | 149 | 3.2 | 6.4 | 0.00 | 0.00 | 0.00 | 87 | 1007.5 |
| 20260508121926 | 9 | 145 | 1.6 | 6.4 | 0.00 | 0.00 | 0.00 | 87 | 1007.6 |
| 20260508121427 | 9 | 147 | 1.6 | 9.7 | 0.00 | 0.00 | 0.00 | 87 | 1007.6 |
| 20260508120927 | 9 | 182 | 3.2 | 11.3 | 0.00 | 0.00 | 0.00 | 87 | 1007.6 |
| 20260508120424 | 9 | 214 | 3.2 | 11.3 | 0.00 | 0.00 | 0.00 | 87 | 1007.4 |
| 20260508115928 | 8 | 200 | 3.2 | 9.7 | 0.00 | 0.00 | 0.00 | 87 | 1007.4 |
| 20260508115648 | 8 | 216 | 3.2 | 8.0 | 0.00 | 0.00 | 0.00 | 87 | 1007.4 |
| 20260508114922 | 8 | 174 | 3.2 | 8.0 | 0.00 | 0.00 | 0.00 | 87 | 1007.5 |
| 20260508114409 | 8 | 200 | 1.6 | 6.4 | 0.00 | 0.00 | 0.00 | 87 | 1007.5 |
| 20260508113857 | 8 | 204 | 0.0 | 4.8 | 0.00 | 0.00 | 0.00 | 87 | 1007.5 |
| 20260508113345 | 8 | 173 | 1.6 | 4.8 | 0.00 | 0.00 | 0.00 | 86 | 1007.2 |
| 20260508112835 | 8 | 173 | 1.6 | 4.8 | 0.00 | 0.00 | 0.00 | 87 | 1007.2 |
| 20260508112321 | 8 | 173 | 1.6 | 4.8 | 0.00 | 0.00 | 0.00 | 86 | 1007.2 |
| 20260508111809 | 8 | 185 | 1.6 | 4.8 | 0.00 | 0.00 | 0.00 | 86 | 1007.1 |
| 20260508111258 | 8 | 204 | 0.0 | 3.2 | 0.00 | 0.00 | 0.00 | 86 | 1007.1 |
| 20260508110745 | 8 | 204 | 0.0 | 3.2 | 0.00 | 0.00 | 0.00 | 85 | 1007.1 |
| 20260508110511 | 8 | 204 | 0.0 | 0.0 | 0.00 | 0.00 | 0.00 | 85 | 1007.2 |
| 20260508105738 | 8 | 204 | 0.0 | 3.2 | 0.00 | 0.00 | 0.00 | 85 | 1007.2 |
| 20260508105231 | 8 | 204 | 1.6 | 3.2 | 0.00 | 0.00 | 0.00 | 85 | 1007.2 |
| 20260508104726 | 8 | 204 | 1.6 | 4.8 | 0.00 | 0.00 | 0.00 | 85 | 1007.2 |
| 20260508104212 | 8 | 245 | 1.6 | 4.8 | 0.00 | 0.00 | 0.00 | 85 | 1007.2 |
| 20260508103713 | 8 | 245 | 0.0 | 3.2 | 0.00 | 0.00 | 0.00 | 85 | 1007.2 |
| 20260508103208 | 8 | 245 | 0.0 | 1.6 | 0.00 | 0.00 | 0.00 | 85 | 1007.3 |
| 20260508102701 | 8 | 245 | 0.0 | 1.6 | 0.00 | 0.00 | 0.00 | 84 | 1007.3 |
| 20260508102157 | 8 | 245 | 0.0 | 0.0 | 0.00 | 0.00 | 0.00 | 84 | 1007.3 |
| 20260508101642 | 8 | 245 | 0.0 | 0.0 | 0.00 | 0.00 | 0.00 | 84 | 1007.5 |
| 20260508101413 | 8 | 245 | 0.0 | 0.0 | 0.00 | 0.00 | 0.00 | 84 | 1007.5 |
| 20260508101118 | 8 | 245 | 0.0 | 0.0 | 0.00 | 0.00 | 0.00 | 83 | 1007.5 |
| 20260508100131 | 8 | 245 | 0.0 | 0.0 | 0.00 | 0.00 | 0.00 | 83 | 1007.2 |
| 20260508095626 | 8 | 245 | 0.0 | 1.6 | 0.00 | 0.00 | 0.00 | 83 | 1007.2 |
| 20260508095116 | 8 | 245 | 0.0 | 1.6 | 0.00 | 0.00 | 0.00 | 83 | 1007.2 |
| 20260508094614 | 8 | 245 | 0.0 | 1.6 | 0.00 | 0.00 | 0.00 | 83 | 1007.6 |
| 20260508094101 | 8 | 245 | 1.6 | 3.2 | 0.00 | 0.00 | 0.00 | 83 | 1007.6 |
| 20260508093600 | 8 | 245 | 1.6 | 3.2 | 0.00 | 0.00 | 0.00 | 83 | 1007.6 |
| 20260508093057 | 8 | 223 | 1.6 | 3.2 | 0.00 | 0.00 | 0.00 | 83 | 1007.5 |
| 20260508092545 | 8 | 223 | 0.0 | 3.2 | 0.00 | 0.00 | 0.00 | 83 | 1007.5 |
| 20260508092044 | 8 | 223 | 1.6 | 4.8 | 0.00 | 0.00 | 0.00 | 83 | 1007.5 |
| 20260508091534 | 8 | 223 | 3.2 | 4.8 | 0.00 | 0.00 | 0.00 | 83 | 1007.5 |
| 20260508091031 | 8 | 223 | 3.2 | 4.8 | 0.00 | 0.00 | 0.00 | 83 | 1007.5 |
| 20260508090525 | 8 | 223 | 1.6 | 3.2 | 0.00 | 0.00 | 0.00 | 83 | 1007.5 |
| 20260508090019 | 8 | 223 | 0.0 | 3.2 | 0.00 | 0.00 | 0.00 | 83 | 1007.6 |
| 20260508085734 | 8 | 223 | 1.6 | 3.2 | 0.00 | 0.00 | 0.00 | 83 | 1007.6 |
| 20260508084959 | 8 | 223 | 1.6 | 3.2 | 0.00 | 0.00 | 0.00 | 82 | 1007.6 |
| 20260508084502 | 8 | 223 | 1.6 | 4.8 | 0.00 | 0.00 | 0.00 | 82 | 1007.6 |
| 20260508083956 | 8 | 223 | 1.6 | 6.4 | 0.00 | 0.00 | 0.00 | 82 | 1007.6 |
| 20260508083445 | 8 | 226 | 3.2 | 8.0 | 0.00 | 0.00 | 0.00 | 81 | 1007.6 |
| 20260508082944 | 9 | 225 | 4.8 | 8.0 | 0.00 | 0.00 | 0.00 | 81 | 1007.6 |
| 20260508082437 | 9 | 204 | 4.8 | 9.7 | 0.00 | 0.00 | 0.00 | 81 | 1007.6 |
| 20260508081931 | 9 | 236 | 6.4 | 9.7 | 0.00 | 0.00 | 0.00 | 80 | 1007.6 |
| 20260508081418 | 9 | 229 | 4.8 | 9.7 | 0.00 | 0.00 | 0.00 | 80 | 1007.6 |
| 20260508080915 | 9 | 229 | 4.8 | 9.7 | 0.00 | 0.00 | 0.00 | 80 | 1007.6 |
| 20260508080413 | 10 | 215 | 4.8 | 9.7 | 0.00 | 0.00 | 0.00 | 80 | 1007.7 |
| 20260508075912 | 10 | 250 | 4.8 | 9.7 | 0.00 | 0.00 | 0.00 | 80 | 1007.7 |
| 20260508075634 | 9 | 228 | 4.8 | 12.9 | 0.00 | 0.00 | 0.00 | 81 | 1007.7 |
| 20260508074911 | 9 | 240 | 4.8 | 12.9 | 0.00 | 0.00 | 0.00 | 81 | 1007.8 |
| 20260508074412 | 9 | 234 | 4.8 | 8.0 | 0.00 | 0.00 | 0.00 | 82 | 1007.8 |
| 20260508073912 | 8 | 207 | 4.8 | 8.0 | 0.00 | 0.00 | 0.00 | 82 | 1007.8 |
| 20260508073412 | 8 | 233 | 4.8 | 9.7 | 0.00 | 0.00 | 0.00 | 82 | 1008.0 |
| 20260508072915 | 8 | 220 | 4.8 | 9.7 | 0.00 | 0.00 | 0.00 | 82 | 1008.0 |
| 20260508072416 | 8 | 217 | 4.8 | 8.0 | 0.00 | 0.00 | 0.00 | 82 | 1008.0 |
| 20260508071909 | 8 | 211 | 4.8 | 8.0 | 0.00 | 0.00 | 0.00 | 83 | 1008.1 |
| 20260508071356 | 8 | 231 | 4.8 | 8.0 | 0.00 | 0.00 | 0.00 | 83 | 1008.1 |
| 20260508070847 | 8 | 216 | 4.8 | 6.4 | 0.00 | 0.00 | 0.00 | 83 | 1008.1 |
| 20260508070340 | 8 | 227 | 4.8 | 6.4 | 0.00 | 0.00 | 0.00 | 83 | 1008.1 |
| 20260508070050 | 8 | 227 | 3.2 | 6.4 | 0.00 | 0.00 | 0.00 | 83 | 1008.1 |
| 20260508065319 | 8 | 223 | 1.6 | 6.4 | 0.00 | 0.00 | 0.00 | 83 | 1008.1 |
| 20260508064821 | 8 | 238 | 1.6 | 8.0 | 0.00 | 0.00 | 0.00 | 82 | 1008.1 |
| 20260508064315 | 8 | 237 | 1.6 | 8.0 | 0.00 | 0.00 | 0.00 | 82 | 1008.1 |
| 20260508063810 | 8 | 245 | 3.2 | 6.4 | 0.00 | 0.00 | 0.00 | 82 | 1008.1 |
| 20260508063302 | 8 | 245 | 3.2 | 6.4 | 0.00 | 0.00 | 0.00 | 82 | 1008.2 |
| 20260508062756 | 8 | 240 | 3.2 | 8.0 | 0.00 | 0.00 | 0.00 | 82 | 1008.2 |
| 20260508062513 | 8 | 238 | 3.2 | 8.0 | 0.00 | 0.00 | 0.00 | 82 | 1008.2 |
| 20260508061741 | 8 | 213 | 3.2 | 9.7 | 0.00 | 0.00 | 0.00 | 82 | 1008.1 |
| 20260508061238 | 8 | 227 | 4.8 | 9.7 | 0.00 | 0.00 | 0.00 | 82 | 1008.1 |
| 20260508060732 | 8 | 233 | 4.8 | 9.7 | 0.00 | 0.00 | 0.00 | 82 | 1008.1 |
| 20260508060445 | 8 | 227 | 3.2 | 6.4 | 0.00 | 0.00 | 0.00 | 82 | 1008.2 |
| 20260508055721 | 8 | 220 | 4.8 | 9.7 | 0.00 | 0.00 | 0.00 | 81 | 1008.2 |
| 20260508055654 | 8 | 198 | 4.8 | 9.7 | 0.00 | 0.00 | 0.00 | 82 | 1008.2 |
| 20260508054708 | 8 | 230 | 4.8 | 6.4 | 0.00 | 0.00 | 0.00 | 81 | 1008.1 |
| 20260508054202 | 8 | 215 | 4.8 | 6.4 | 0.00 | 0.00 | 0.00 | 81 | 1008.1 |
| 20260508053656 | 8 | 216 | 4.8 | 8.0 | 0.00 | 0.00 | 0.00 | 81 | 1008.1 |
| 20260508053151 | 8 | 232 | 4.8 | 9.7 | 0.00 | 0.00 | 0.00 | 81 | 1008.1 |
| 20260508052645 | 8 | 255 | 3.2 | 9.7 | 0.00 | 0.00 | 0.00 | 81 | 1008.1 |
| 20260508052140 | 8 | 240 | 3.2 | 8.0 | 0.00 | 0.00 | 0.00 | 81 | 1008.1 |
| 20260508051629 | 8 | 223 | 1.6 | 4.8 | 0.00 | 0.00 | 0.00 | 81 | 1008.1 |
| 20260508051348 | 8 | 236 | 1.6 | 4.8 | 0.00 | 0.00 | 0.00 | 81 | 1008.1 |
| 20260508050619 | 8 | 238 | 3.2 | 6.4 | 0.00 | 0.00 | 0.00 | 81 | 1008.1 |
| 20260508050116 | 8 | 234 | 3.2 | 6.4 | 0.00 | 0.00 | 0.00 | 80 | 1007.8 |
| 20260508045611 | 8 | 289 | 3.2 | 6.4 | 0.00 | 0.00 | 0.00 | 80 | 1007.8 |
| 20260508045330 | 9 | 245 | 4.8 | 12.9 | 0.00 | 0.00 | 0.00 | 80 | 1007.8 |
| 20260508044559 | 9 | 223 | 6.4 | 12.9 | 0.00 | 0.00 | 0.00 | 80 | 1007.7 |
| 20260508044049 | 9 | 222 | 6.4 | 11.3 | 0.00 | 0.00 | 0.00 | 79 | 1007.7 |
| 20260508043547 | 9 | 223 | 6.4 | 11.3 | 0.00 | 0.00 | 0.00 | 79 | 1007.7 |
| 20260508043041 | 9 | 222 | 6.4 | 11.3 | 0.00 | 0.00 | 0.00 | 79 | 1007.6 |
| 20260508042800 | 9 | 221 | 6.4 | 11.3 | 0.00 | 0.00 | 0.00 | 78 | 1007.6 |
| 20260508042030 | 9 | 245 | 6.4 | 12.9 | 0.00 | 0.00 | 0.00 | 78 | 1007.6 |
| 20260508041523 | 10 | 229 | 6.4 | 12.9 | 0.00 | 0.00 | 0.00 | 78 | 1007.6 |
| 20260508041244 | 10 | 228 | 6.4 | 11.3 | 0.00 | 0.00 | 0.00 | 77 | 1007.6 |
| 20260508040729 | 10 | 217 | 4.8 | 11.3 | 0.00 | 0.00 | 0.00 | 77 | 1007.6 |
| 20260508040227 | 10 | 215 | 4.8 | 11.3 | 0.00 | 0.00 | 0.00 | 77 | 1007.6 |
| 20260508035457 | 10 | 212 | 4.8 | 11.3 | 0.00 | 0.00 | 0.00 | 77 | 1007.6 |
| 20260508034947 | 10 | 223 | 4.8 | 11.3 | 0.00 | 0.00 | 0.00 | 76 | 1007.6 |
| 20260508034446 | 10 | 224 | 4.8 | 12.9 | 0.00 | 0.00 | 0.00 | 76 | 1007.6 |
| 20260508034158 | 10 | 213 | 4.8 | 12.9 | 0.00 | 0.00 | 0.00 | 76 | 1007.6 |
| 20260508033434 | 10 | 215 | 6.4 | 9.7 | 0.00 | 0.00 | 0.00 | 76 | 1007.6 |
| 20260508032928 | 10 | 216 | 6.4 | 11.3 | 0.00 | 0.00 | 0.00 | 76 | 1007.6 |
| 20260508032421 | 10 | 225 | 6.4 | 12.9 | 0.00 | 0.00 | 0.00 | 75 | 1007.6 |
| 20260508031915 | 10 | 210 | 6.4 | 12.9 | 0.00 | 0.00 | 0.00 | 75 | 1007.4 |
| 20260508031405 | 10 | 227 | 6.4 | 12.9 | 0.00 | 0.00 | 0.00 | 74 | 1007.4 |
| 20260508030905 | 10 | 225 | 6.4 | 14.5 | 0.00 | 0.00 | 0.00 | 74 | 1007.4 |
| 20260508030404 | 10 | 232 | 4.8 | 14.5 | 0.00 | 0.00 | 0.00 | 73 | 1007.4 |
| 20260508025904 | 10 | 239 | 3.2 | 8.0 | 0.00 | 0.00 | 0.00 | 72 | 1007.4 |
| 20260508025404 | 11 | 210 | 3.2 | 4.8 | 0.00 | 0.00 | 0.00 | 71 | 1007.4 |
| 20260508024905 | 11 | 198 | 3.2 | 6.4 | 0.00 | 0.00 | 0.00 | 70 | 1007.4 |
| 20260508024405 | 11 | 207 | 3.2 | 6.4 | 0.00 | 0.00 | 0.00 | 70 | 1007.4 |
| 20260508024130 | 11 | 205 | 3.2 | 6.4 | 0.00 | 0.00 | 0.00 | 70 | 1007.4 |
| 20260508023405 | 11 | 192 | 3.2 | 6.4 | 0.00 | 0.00 | 0.00 | 70 | 1007.2 |
| 20260508022905 | 10 | 196 | 3.2 | 6.4 | 0.00 | 0.00 | 0.00 | 71 | 1007.2 |
| 20260508022407 | 10 | 226 | 1.6 | 6.4 | 0.00 | 0.00 | 0.00 | 71 | 1007.2 |
| 20260508021907 | 10 | 223 | 0.0 | 6.4 | 0.00 | 0.00 | 0.00 | 72 | 1007.2 |
| 20260508021401 | 10 | 177 | 0.0 | 0.0 | 0.00 | 0.00 | 0.00 | 72 | 1007.2 |
| 20260508020851 | 10 | 186 | 0.0 | 0.0 | 0.00 | 0.00 | 0.00 | 72 | 1007.2 |
| 20260508020334 | 10 | 186 | 0.0 | 0.0 | 0.00 | 0.00 | 0.00 | 73 | 1007.1 |
| 20260508015823 | 10 | 169 | 0.0 | 0.0 | 0.00 | 0.00 | 0.00 | 73 | 1007.1 |
| 20260508015312 | 10 | 180 | 0.0 | 0.0 | 0.00 | 0.00 | 0.00 | 73 | 1007.1 |
| 20260508014758 | 10 | 153 | 0.0 | 0.0 | 0.00 | 0.00 | 0.00 | 73 | 1006.8 |
| 20260508014514 | 10 | 85 | 0.0 | 0.0 | 0.00 | 0.00 | 0.00 | 73 | 1006.8 |
| 20260508013742 | 10 | 85 | 0.0 | 0.0 | 0.00 | 0.00 | 0.00 | 73 | 1006.8 |
| 20260508013717 | 10 | 85 | 0.0 | 0.0 | 0.00 | 0.00 | 0.00 | 73 | 1006.6 |
| 20260508012736 | 10 | 85 | 0.0 | 0.0 | 0.00 | 0.00 | 0.00 | 73 | 1006.6 |
| 20260508012228 | 11 | 85 | 0.0 | 0.0 | 0.00 | 0.00 | 0.00 | 73 | 1006.6 |
| 20260508011723 | 11 | 27 | 0.0 | 0.0 | 0.00 | 0.00 | 0.00 | 73 | 1006.6 |
| 20260508011213 | 11 | 27 | 0.0 | 0.0 | 0.00 | 0.00 | 0.00 | 73 | 1006.6 |
| 20260508010712 | 11 | 24 | 0.0 | 0.0 | 0.00 | 0.00 | 0.00 | 72 | 1006.6 |
| 20260508010201 | 11 | 13 | 0.0 | 0.0 | 0.00 | 0.00 | 0.00 | 72 | 1006.6 |
| 20260508005659 | 11 | 13 | 0.0 | 0.0 | 0.00 | 0.00 | 0.00 | 71 | 1006.6 |
| 20260508005647 | 12 | 13 | 0.0 | 0.0 | 0.00 | 0.00 | 0.00 | 71 | 1006.6 |
| 20260508004912 | 12 | 13 | 0.0 | 0.0 | 0.00 | 0.00 | 0.00 | 70 | 1006.5 |
| 20260508004142 | 12 | 13 | 0.0 | 0.0 | 0.00 | 0.00 | 0.00 | 69 | 1006.5 |
| 20260508003857 | 12 | 13 | 0.0 | 0.0 | 0.00 | 0.00 | 0.00 | 69 | 1006.5 |
| 20260508003355 | 13 | 13 | 0.0 | 0.0 | 0.00 | 0.00 | 0.00 | 68 | 1006.5 |
| 20260508002623 | 13 | 13 | 0.0 | 0.0 | 0.00 | 0.00 | 0.00 | 68 | 1006.5 |
| 20260508002341 | 13 | 13 | 0.0 | 0.0 | 0.00 | 0.00 | 0.00 | 67 | 1006.5 |
| 20260508001610 | 13 | 13 | 0.0 | 0.0 | 0.00 | 0.00 | 0.00 | 67 | 1006.5 |
| 20260508001101 | 12 | 13 | 0.0 | 0.0 | 0.00 | 0.00 | 0.00 | 68 | 1006.5 |
| 20260508000558 | 12 | 13 | 0.0 | 1.6 | 0.00 | 0.00 | 0.00 | 68 | 1006.5 |
| 20260508000053 | 12 | 13 | 0.0 | 3.2 | 0.00 | 0.00 | 0.00 | 68 | 1006.5 |
| 20260507235546 | 12 | 13 | 1.6 | 6.4 | 0.00 | 0.00 | 0.00 | 68 | 1006.5 |
| 20260507235041 | 12 | 5 | 1.6 | 6.4 | 0.00 | 0.00 | 0.00 | 68 | 1006.5 |
| 20260507234534 | 12 | 342 | 3.2 | 8.0 | 0.00 | 0.00 | 0.00 | 67 | 1006.5 |
| 20260507234251 | 12 | 282 | 3.2 | 8.0 | 0.00 | 0.00 | 0.00 | 67 | 1006.5 |
| 20260507233522 | 12 | 5 | 3.2 | 9.7 | 0.00 | 0.00 | 0.00 | 66 | 1006.5 |
| 20260507233016 | 12 | 54 | 4.8 | 11.3 | 0.00 | 0.00 | 0.00 | 65 | 1006.5 |
| 20260507232510 | 13 | 34 | 6.4 | 12.9 | 0.00 | 0.00 | 0.00 | 63 | 1006.5 |
| 20260507232004 | 13 | 36 | 6.4 | 12.9 | 0.00 | 0.00 | 0.00 | 62 | 1006.5 |
| 20260507231458 | 14 | 0 | 6.4 | 16.1 | 0.00 | 0.00 | 0.00 | 58 | 1006.3 |
| 20260507230948 | 15 | 34 | 9.7 | 29.0 | 0.00 | 0.00 | 0.00 | 56 | 1006.3 |
| 20260507230713 | 15 | 221 | 11.3 | 29.0 | 0.00 | 0.00 | 0.00 | 55 | 1006.3 |
| 20260507225939 | 15 | 246 | 9.7 | 27.4 | 0.00 | 0.00 | 0.00 | 58 | 1006.3 |
| 20260507225428 | 15 | 186 | 11.3 | 27.4 | 0.00 | 0.00 | 0.00 | 58 | 1006.3 |
| 20260507224927 | 15 | 234 | 11.3 | 29.0 | 0.00 | 0.00 | 0.00 | 58 | 1006.6 |
| 20260507224421 | 15 | 232 | 12.9 | 29.0 | 0.00 | 0.00 | 0.00 | 57 | 1006.6 |
| 20260507223919 | 15 | 225 | 12.9 | 24.1 | 0.00 | 0.00 | 0.00 | 57 | 1006.6 |
| 20260507223640 | 15 | 229 | 11.3 | 24.1 | 0.00 | 0.00 | 0.00 | 56 | 1006.7 |
| 20260507222920 | 15 | 197 | 11.3 | 22.5 | 0.00 | 0.00 | 0.00 | 57 | 1006.7 |
| 20260507222420 | 15 | 255 | 12.9 | 22.5 | 0.00 | 0.00 | 0.00 | 58 | 1006.7 |
| 20260507221920 | 15 | 225 | 12.9 | 22.5 | 0.00 | 0.00 | 0.00 | 57 | 1006.8 |
| 20260507221419 | 15 | 211 | 11.3 | 22.5 | 0.00 | 0.00 | 0.00 | 59 | 1006.8 |
| 20260507220919 | 14 | 221 | 11.3 | 22.5 | 0.00 | 0.00 | 0.00 | 59 | 1006.8 |
| 20260507220419 | 14 | 213 | 11.3 | 22.5 | 0.00 | 0.00 | 0.00 | 60 | 1007.1 |
| 20260507215920 | 14 | 220 | 12.9 | 25.7 | 0.00 | 0.00 | 0.00 | 60 | 1007.1 |
| 20260507215419 | 13 | 231 | 14.5 | 25.7 | 0.00 | 0.00 | 0.00 | 61 | 1007.1 |
| 20260507214914 | 13 | 219 | 14.5 | 25.7 | 0.00 | 0.00 | 0.00 | 61 | 1007.1 |
| 20260507214402 | 13 | 227 | 14.5 | 32.2 | 0.00 | 0.00 | 0.00 | 61 | 1007.1 |
| 20260507213849 | 13 | 220 | 14.5 | 32.2 | 0.00 | 0.00 | 0.00 | 60 | 1007.1 |
| 20260507213337 | 13 | 215 | 16.1 | 37.0 | 0.00 | 0.00 | 0.00 | 60 | 1007.2 |
| 20260507212831 | 13 | 275 | 16.1 | 37.0 | 0.00 | 0.00 | 0.00 | 62 | 1007.2 |
| 20260507212546 | 13 | 220 | 16.1 | 33.8 | 0.00 | 0.00 | 0.00 | 61 | 1007.2 |
| 20260507211819 | 13 | 227 | 17.7 | 33.8 | 0.00 | 0.00 | 0.00 | 62 | 1007.1 |
| 20260507211538 | 13 | 248 | 17.7 | 33.8 | 0.00 | 0.00 | 0.00 | 61 | 1007.1 |
| 20260507210807 | 13 | 248 | 16.1 | 33.8 | 0.00 | 0.00 | 0.00 | 61 | 1007.1 |
| 20260507210301 | 13 | 204 | 16.1 | 30.6 | 0.00 | 0.00 | 0.00 | 61 | 1007.2 |
| 20260507205755 | 13 | 235 | 14.5 | 33.8 | 0.00 | 0.00 | 0.00 | 61 | 1007.2 |
| 20260507205245 | 13 | 214 | 16.1 | 33.8 | 0.00 | 0.00 | 0.00 | 62 | 1007.2 |
| 20260507204743 | 13 | 234 | 14.5 | 29.0 | 0.00 | 0.00 | 0.00 | 62 | 1007.6 |
| 20260507204459 | 13 | 231 | 12.9 | 25.7 | 0.00 | 0.00 | 0.00 | 61 | 1007.6 |
| 20260507203817 | 13 | 177 | 12.9 | 25.7 | 0.00 | 0.00 | 0.00 | 62 | 1007.6 |
| 20260507202715 | 12 | 239 | 14.5 | 30.6 | 0.00 | 0.00 | 0.00 | 64 | 1008.1 |
| 20260507202213 | 12 | 213 | 12.9 | 30.6 | 0.00 | 0.00 | 0.00 | 65 | 1008.1 |
| 20260507201708 | 12 | 240 | 12.9 | 30.6 | 0.00 | 0.00 | 0.00 | 65 | 1008.2 |
| 20260507201201 | 12 | 238 | 14.5 | 33.8 | 0.00 | 0.00 | 0.00 | 66 | 1008.2 |
| 20260507200656 | 12 | 237 | 16.1 | 33.8 | 0.00 | 0.00 | 0.00 | 65 | 1008.2 |
| 20260507200145 | 12 | 241 | 14.5 | 32.2 | 0.00 | 0.00 | 0.00 | 65 | 1008.7 |
| 20260507195914 | 11 | 217 | 12.9 | 25.7 | 0.00 | 0.00 | 0.00 | 66 | 1008.7 |
| 20260507195137 | 11 | 268 | 9.7 | 25.7 | 0.00 | 0.00 | 0.00 | 67 | 1008.7 |
| 20260507194632 | 11 | 221 | 11.3 | 25.7 | 0.00 | 0.00 | 0.00 | 70 | 1009.1 |
| 20260507194125 | 10 | 286 | 14.5 | 32.2 | 0.00 | 0.00 | 0.00 | 71 | 1009.1 |
| 20260507193620 | 10 | 205 | 16.1 | 32.2 | 0.00 | 0.00 | 0.00 | 71 | 1009.1 |
| 20260507193113 | 11 | 245 | 16.1 | 35.4 | 0.00 | 0.00 | 0.00 | 68 | 1009.2 |
| 20260507192832 | 11 | 233 | 16.1 | 35.4 | 0.00 | 0.00 | 0.00 | 65 | 1009.2 |
| 20260507192557 | 11 | 171 | 17.7 | 38.6 | 0.00 | 0.00 | 0.00 | 63 | 1009.2 |
| 20260507191555 | 11 | 259 | 16.1 | 38.6 | 0.00 | 0.00 | 0.00 | 62 | 1009.3 |
| 20260507191049 | 11 | 242 | 16.1 | 33.8 | 0.00 | 0.00 | 0.00 | 62 | 1009.3 |
| 20260507190543 | 11 | 217 | 17.7 | 40.2 | 0.00 | 0.00 | 0.00 | 61 | 1009.3 |
| 20260507190033 | 12 | 246 | 17.7 | 40.2 | 0.00 | 0.00 | 0.00 | 60 | 1009.2 |
| 20260507185757 | 12 | 267 | 20.9 | 35.4 | 0.00 | 0.00 | 0.00 | 61 | 1009.2 |
| 20260507185242 | 12 | 229 | 20.9 | 43.5 | 0.00 | 0.00 | 0.00 | 60 | 1009.2 |
| 20260507185006 | 12 | 205 | 19.3 | 43.5 | 0.00 | 0.00 | 0.00 | 57 | 1009.0 |
| 20260507184014 | 13 | 215 | 17.7 | 41.8 | 0.00 | 0.00 | 0.00 | 56 | 1009.0 |
| 20260507183515 | 13 | 203 | 16.1 | 35.4 | 0.00 | 0.00 | 0.00 | 54 | 1009.0 |
| 20260507183014 | 13 | 240 | 14.5 | 35.4 | 0.00 | 0.00 | 0.00 | 51 | 1009.0 |
| 20260507182515 | 13 | 259 | 14.5 | 35.4 | 0.00 | 0.00 | 0.00 | 49 | 1009.0 |
| 20260507182015 | 13 | 192 | 14.5 | 35.4 | 0.00 | 0.00 | 0.00 | 47 | 1009.0 |
| 20260507181743 | 13 | 218 | 12.9 | 37.0 | 0.00 | 0.00 | 0.00 | 49 | 1009.3 |
| 20260507181014 | 13 | 243 | 12.9 | 37.0 | 0.00 | 0.00 | 0.00 | 48 | 1009.3 |
| 20260507180515 | 13 | 238 | 12.9 | 25.7 | 0.00 | 0.00 | 0.00 | 48 | 1009.3 |
| 20260507180015 | 13 | 235 | 14.5 | 48.3 | 0.00 | 0.00 | 0.00 | 48 | 1009.5 |
| 20260507175742 | 13 | 246 | 11.3 | 48.3 | 0.00 | 0.00 | 0.00 | 48 | 1009.5 |
| 20260507175018 | 13 | 235 | 9.7 | 32.2 | 0.00 | 0.00 | 0.00 | 47 | 1009.5 |
| 20260507174513 | 13 | 229 | 11.3 | 27.4 | 0.00 | 0.00 | 0.00 | 46 | 1009.5 |
| 20260507173959 | 13 | 152 | 11.3 | 27.4 | 0.00 | 0.00 | 0.00 | 46 | 1009.5 |
| 20260507173447 | 13 | 228 | 9.7 | 27.4 | 0.00 | 0.00 | 0.00 | 45 | 1009.7 |
| 20260507172935 | 13 | 247 | 9.7 | 25.7 | 0.00 | 0.00 | 0.00 | 45 | 1009.7 |